FENGYUN 1C DEB

Satellite information

Favourite Embed

Satellite Type and Status

DEBRISIN ORBIT

Key statistics

Satellite FENGYUN 1C DEB at a glance.

Uptime

9714

Days in orbit

Revolutions

≈ 14.4

Per day

Orbit

SSO

Sun Synchronous Orbit

Inclination

99.3

Latest

Satellite identification and parameters

Extended collection of information and parameters for FENGYUN 1C DEB.

Object identification

Identified? True

Debris? True

Object name: FENGYUN 1C DEB

International designator: 1999-025BCT

Object number (NORAD): 31001

Object ID (CCSDS): 31001

Country: PEOPLES REPUBLIC OF CHINA (PRC)

Current information (Y/N): Y

RCS size: SMALL

Orbital parameters

Period: 99.802 minutes

Inclination: 99.2719 deg

SMA: 7127.205 km

Apoapsis: 853.723 km

Periapsis: 644.417 km

RAAN: 218.9415 deg

Eccentricy: 0.01468358

Argument of periapsis: 154.3626 deg

Mean anomaly: 206.4937 deg

Mean motion: 14.42858877 rev/day

Mean motion (dot): 0.00002323 rev/day2

B* drag term: 0.00062559391 1/REarth

Two-line elements (TLE)

Creation date: Dec. 12, 2025, 10:14 a.m.

Reference frame: TEME

Reference center: EARTH

Epoch: Dec. 12, 2025, 2:39 a.m. UTC

TLE line 0: 0 FENGYUN 1C DEB

TLE line 1: 1 31001U 99025BCT 25346.11073933 .00002323 00000-0 62559-3 0 9997

TLE line 2: 2 31001 99.2719 218.9415 0146836 154.3626 206.4937 14.42858877981978

Live tracking on map

Real-time ground track for satellite FENGYUN 1C DEB.

In-orbit conjunctions

A list of the most updated potential collisions computed for object FENGYUN 1C DEB.

Target Orbit TCA Probability of collision Miss distance Type
DELTA 1 DEB LEO 2025-07-29 05:35:53 0.0005759603 124.0 (m) DEBRIS
IRIDIUM 36 LEO 2025-06-05 23:53:43 0.0001554033 675.0 (m) PAYLOAD
EXPLORER 20 LEO 2025-02-23 19:43:33 0.0004545508 91.0 (m) PAYLOAD
FENGYUN 1C DEB SSO 2025-02-01 21:31:11 0.0001727779 214.0 (m) DEBRIS
CZ-2D R/B SSO 2025-01-02 14:46:35 0.0003411232 253.0 (m) ROCKET BODY

Associated space launch

Chinese polar orbiting meteorological satellite

FENGYUN 1C DEB was lifted into orbit during the mission ‘Long March 4B | Feng Yun 1C’, on board a Long March 4B space rocket.

The launch took place on May 10, 1999, 1:33 a.m. from Launch Complex 7.

For more information about the launch, click the button.

Launch to space Long March 4B | Feng Yun 1C
Long March 4B | Feng Yun 1C

Agency: N/A

Status: Launch Successful

Launch date: May 10, 1999, 1:33 a.m. UTC

Rocket: Long March 4B

Launch pad: Launch Complex 7

Location: Taiyuan Satellite Launch Center, People's Republic of China

...

Latest news about this satellite

There are no fresh news available about this satellite. Check back as we update our databases every day.


Newsletter sign-up

Weekly statistics, charts and insights to help you stay on top of the space industry.